[[{"header":{"parameterUnit":"m.s-1","parameterCategory":1,"la1":30.2991,"la2":30.254,"lo1":-89.0895,"lo2":-89.0444,"dy":0.0017,"dx":0.0017,"nx":28,"ny":28,"refTime":"2024-08-10T03:00:00:Z","depth":0,"parameterNumber":2,"parameterNumberName":"U-component_of_WINDS"},"data":[0,0,0,0,0,0,0,0,0,0,0,0,0,0,0,0,0,0,0,0,0,0,0,0,0,0,0,0,0,0,0,0,0,0,0,0,0,0,0,0,0,0,0,0,0,0,0,0,0,0,0,0,0,0,0,0,0,0,-0.1223,-0.1224,0,-0.1299,-0.13,-0.13,-0.1287,-0.1286,-0.1284,-0.1283,-0.1364,-0.1367,-0.137,0,0,0,0,0,0,0,0,0,0,0,0,0,-0.1069,-0.1072,-0.1223,-0.1224,-0.1225,-0.1298,-0.13,-0.1301,-0.1287,-0.1285,-0.1284,-0.1282,-0.1363,-0.1367,-0.1371,0,0,0,0,0,0,0,0,0,0,0,0,0,-0.114,-0.1073,-0.1223,-0.1227,-0.1228,-0.1298,-0.13,-0.1301,-0.1287,-0.1285,-0.1283,-0.1282,-0.1361,-0.1366,-0.1371,-0.1443,0,0,-0.1387,-0.1389,0,0,0,0,0,0,0,0,-0.1136,-0.1145,-0.1225,-0.1227,-0.1228,-0.1281,-0.1275,-0.1349,-0.1288,-0.1265,-0.1283,-0.1281,-0.1338,-0.1345,-0.1364,-0.1447,-0.1451,-0.1387,-0.139,-0.1393,-0.1394,0,0,0,0,0,0,0,-0.1131,-0.1142,-0.1253,-0.1226,-0.1228,-0.1226,-0.1234,-0.1289,-0.1312,-0.1267,-0.1266,-0.1275,-0.1338,-0.1359,-0.1366,-0.1452,-0.1387,-0.1392,-0.1395,-0.1397,-0.1599,-0.1601,0,0,0,0,0,0,-0.1124,-0.1138,-0.125,-0.1255,-0.1176,-0.123,-0.1239,-0.1266,-0.1311,-0.1316,-0.1277,-0.1274,-0.1351,-0.136,-0.1368,-0.1457,-0.1393,-0.1397,-0.14,-0.1597,-0.1599,-0.1602,0,0,0,0,0,0,-0.1121,-0.1134,-0.1247,-0.1196,-0.1211,-0.1235,-0.1266,-0.1269,-0.1289,-0.1319,-0.1323,-0.1293,-0.135,-0.1361,-0.1425,-0.1459,-0.14,-0.1404,-0.1594,-0.1597,-0.1601,-0.1634,0,0,0,0,0,0,-0.1116,-0.1133,-0.116,-0.1197,-0.1213,-0.1302,-0.1268,-0.1272,-0.1298,-0.1295,-0.1335,-0.134,-0.1349,-0.1417,-0.143,-0.1465,-0.1408,-0.1591,-0.1595,-0.1599,-0.163,-0.1638,-0.1645,0,0,0,0,0,-0.1111,-0.1167,-0.1162,-0.1175,-0.1248,-0.1304,-0.1313,-0.1322,-0.13,-0.1329,-0.1347,-0.1339,-0.1453,-0.1424,-0.1438,-0.1476,-0.1589,-0.1594,-0.1599,-0.1626,-0.1636,-0.1645,0,0,0,0,0,0,-0.1135,-0.1172,-0.1167,-0.1236,-0.1267,-0.1302,-0.1337,-0.1332,-0.137,-0.1367,-0.1376,-0.1385,-0.145,-0.1469,-0.1436,-0.1548,-0.1518,-0.1526,-0.1534,-0.1544,-0.1551,-0.1546,-0.1413,0,0,0,0,0,-0.1148,-0.119,-0.122,-0.1279,-0.1294,-0.1313,-0.1338,-0.1341,-0.1374,-0.1388,-0.1411,-0.1444,-0.1488,-0.1516,-0.1558,-0.1631,-0.1641,-0.1664,-0.1672,-0.1678,-0.1686,-0.1727,-0.1738,-0.1619,-0.1619,-0.1619,0,0,-0.1177,-0.1202,-0.1228,-0.1284,-0.1309,-0.1353,-0.1324,-0.1372,-0.1406,-0.1395,-0.1457,-0.1475,-0.1513,-0.1582,-0.1614,-0.16,-0.172,-0.1684,-0.1689,-0.1694,-0.1734,-0.1745,-0.1755,-0.1622,-0.1622,-0.1621,0,0,-0.1251,-0.1274,-0.1325,-0.135,-0.1387,-0.1398,-0.1411,-0.1446,-0.1458,-0.1519,-0.1513,-0.1552,-0.1627,-0.1654,-0.1677,-0.1761,-0.1755,-0.1774,-0.1815,-0.1855,-0.1865,-0.1873,-0.1905,-0.1916,-0.1781,-0.1781,-0.1781,0,-0.1282,-0.1348,-0.1353,-0.1401,-0.1427,-0.1418,-0.1471,-0.1495,-0.1544,-0.1562,-0.1545,-0.1638,-0.1662,-0.1738,-0.1759,-0.1777,-0.1793,-0.1771,-0.1863,-0.1871,-0.1879,-0.191,-0.1921,-0.1783,-0.1783,-0.1783,-0.1783,0,-0.1385,-0.143,-0.1468,-0.1514,-0.1543,-0.1594,-0.1608,-0.1637,-0.1637,-0.1651,-0.1714,-0.1743,-0.1791,-0.1808,-0.181,-0.1885,-0.1875,-0.186,-0.1831,-0.1893,-0.1922,-0.1933,-0.1787,-0.1786,-0.1785,-0.1785,0,0,-0.1479,-0.1527,-0.1541,-0.1562,-0.1601,-0.1637,-0.1687,-0.1732,-0.1758,-0.1791,-0.1835,-0.1897,-0.1883,-0.191,-0.1914,-0.1949,-0.2015,-0.193,-0.1931,-0.1947,-0.2102,-0.2115,-0.2128,-0.201,-0.2012,-0.2014,-0.2099,0,-0.1559,-0.1647,-0.1653,-0.1733,-0.1776,-0.1767,-0.1811,-0.184,-0.1854,-0.1893,-0.1908,-0.1953,-0.1931,-0.1947,-0.1981,-0.2,-0.2047,-0.1993,-0.2053,-0.2055,-0.2046,-0.2143,-0.2157,-0.2236,-0.211,-0.2112,-0.2114,0,-0.1665,-0.1701,-0.1785,-0.1818,-0.1836,-0.1876,-0.1918,-0.1954,-0.1988,-0.1995,-0.2024,-0.2023,-0.2076,-0.2042,-0.2115,-0.2079,-0.2103,-0.2116,-0.2119,-0.2127,-0.209,-0.2156,-0.2261,-0.2274,-0.2131,-0.213,-0.2128,0,-0.1728,-0.1797,-0.1857,-0.1875,-0.1914,-0.1942,-0.196,-0.1991,-0.2018,-0.2055,-0.2073,-0.2115,-0.2139,-0.2172,-0.2183,-0.2157,-0.2257,-0.2224,-0.2266,-0.2266,-0.229,-0.2289,-0.2403,-0.2301,-0.2301,-0.2301,-0.23,0,-0.1818,-0.1871,-0.1886,-0.1923,-0.1981,-0.1987,-0.2045,-0.2061,-0.2089,-0.2129,-0.2124,-0.2162,-0.2173,-0.2213,-0.2222,-0.2282,-0.2292,-0.2301,-0.2304,-0.2304,-0.2303,-0.2322,-0.2317,-0.2304,-0.2303,-0.2303,-0.2302,0,-0.19,-0.1912,-0.1977,-0.2008,-0.2017,-0.2059,-0.2087,-0.2123,-0.2135,-0.2187,-0.2199,-0.2219,-0.2266,-0.2279,-0.2336,-0.2342,-0.2414,-0.2409,-0.2403,-0.2404,-0.2446,-0.2443,-0.2579,-0.2598,-0.2481,-0.2482,-0.2483,0,-0.1959,-0.1999,-0.2034,-0.206,-0.2079,-0.2122,-0.2149,-0.2155,-0.2184,-0.2224,-0.2256,-0.2302,-0.234,-0.2416,-0.2437,-0.248,-0.2479,-0.2523,-0.2485,-0.2484,-0.2482,-0.2481,-0.2485,-0.2531,-0.2532,-0.2533,-0.2534,0,-0.2061,-0.2065,-0.2104,-0.2145,-0.2177,-0.2209,-0.2241,-0.2263,-0.2274,-0.2306,-0.2354,-0.2383,-0.2441,-0.2488,-0.2532,-0.2551,-0.2546,-0.2545,-0.2558,-0.256,-0.2555,-0.256,-0.2425,-0.2543,-0.2542,-0.2541,-0.2541,-0.2541,-0.2135,-0.217,-0.2201,-0.2244,-0.2268,-0.2297,-0.2333,-0.2349,-0.2389,-0.2436,-0.2437,-0.249,-0.2521,-0.258,-0.2601,-0.2643,-0.263,-0.2648,-0.2653,-0.2658,-0.2663,-0.2546,-0.2651,-0.2651,-0.265,-0.265,-0.265,0,-0.224,-0.2258,-0.2298,-0.2342,-0.2376,-0.2365,-0.2399,-0.2429,-0.2475,-0.2504,-0.2541,-0.2597,-0.2642,-0.2664,-0.2709,-0.2739,-0.2737,-0.275,-0.275,-0.2755,-0.2671,-0.2656,-0.2751,-0.2751,-0.2751,-0.2751,-0.2751,-0.2751,-0.2298,-0.2358,-0.2365,-0.2437,-0.2455,-0.2506,-0.2527,-0.2554,-0.2578,-0.264,-0.2677,-0.269,-0.2718,-0.2764,-0.2806,-0.2811,-0.2829,-0.2845,-0.2849,-0.2771,-0.276,-0.2751,-0.2738,-0.2848,-0.2848,-0.293,-0.2931,-0.2931]},{"header":{"parameterUnit":"m.s-1","parameterCategory":1,"la1":30.2991,"la2":30.254,"lo1":-89.0895,"lo2":-89.0444,"dy":0.0017,"dx":0.0017,"nx":28,"ny":28,"refTime":"2024-08-10T03:00:00:Z","depth":0,"parameterNumber":3,"parameterNumberName":"V-component_of_WINDS"},"data":[0,0,0,0,0,0,0,0,0,0,0,0,0,0,0,0,0,0,0,0,0,0,0,0,0,0,0,0,0,0,0,0,0,0,0,0,0,0,0,0,0,0,0,0,0,0,0,0,0,0,0,0,0,0,0,0,0,0,-4.1241,-4.1241,0,-4.1304,-4.1304,-4.1305,-4.1236,-4.1234,-4.1231,-4.1229,-4.129,-4.1294,-4.1298,0,0,0,0,0,0,0,0,0,0,0,0,0,-4.1057,-4.1061,-4.1241,-4.1241,-4.1242,-4.1304,-4.1304,-4.1305,-4.1237,-4.1234,-4.123,-4.1227,-4.1289,-4.1294,-4.1298,0,0,0,0,0,0,0,0,0,0,0,0,0,-4.113,-4.1062,-4.124,-4.1215,-4.1214,-4.1303,-4.1304,-4.1305,-4.1237,-4.1233,-4.123,-4.1226,-4.1287,-4.1293,-4.1299,-4.1415,0,0,-4.1318,-4.132,0,0,0,0,0,0,0,0,-4.1126,-4.1137,-4.1218,-4.1217,-4.1216,-4.1258,-4.1262,-4.1342,-4.1238,-4.1228,-4.1229,-4.1224,-4.1282,-4.1289,-4.1309,-4.1418,-4.1421,-4.1318,-4.1322,-4.1325,-4.1326,0,0,0,0,0,0,0,-4.1121,-4.1134,-4.1265,-4.122,-4.1218,-4.12,-4.1206,-4.1277,-4.1277,-4.1229,-4.1224,-4.1233,-4.1281,-4.1303,-4.131,-4.1422,-4.1318,-4.1324,-4.1327,-4.133,-4.1628,-4.1632,0,0,0,0,0,0,-4.1119,-4.113,-4.1263,-4.1267,-4.116,-4.1206,-4.1213,-4.1248,-4.1276,-4.1276,-4.1236,-4.1229,-4.1295,-4.1303,-4.1312,-4.1449,-4.1325,-4.133,-4.1334,-4.1624,-4.1629,-4.1634,0,0,0,0,0,0,-4.1116,-4.1132,-4.1261,-4.1197,-4.1212,-4.1214,-4.1254,-4.1252,-4.1274,-4.1281,-4.128,-4.1259,-4.1292,-4.1303,-4.139,-4.145,-4.1333,-4.1339,-4.1619,-4.1626,-4.1632,-4.1726,0,0,0,0,0,0,-4.1111,-4.1131,-4.1176,-4.1199,-4.1216,-4.134,-4.1258,-4.1256,-4.1285,-4.1277,-4.1303,-4.1303,-4.129,-4.1381,-4.1396,-4.1457,-4.1343,-4.1614,-4.1622,-4.1629,-4.1717,-4.1734,-4.1749,0,0,0,0,0,-4.1104,-4.12,-4.1179,-4.1195,-4.1273,-4.1343,-4.1353,-4.1337,-4.129,-4.1335,-4.1339,-4.1302,-4.1441,-4.1391,-4.1407,-4.147,-4.161,-4.162,-4.1629,-4.171,-4.1731,-4.1749,0,0,0,0,0,0,-4.1183,-4.1202,-4.1179,-4.1285,-4.1313,-4.1332,-4.1388,-4.136,-4.1401,-4.1391,-4.1368,-4.1375,-4.1467,-4.1477,-4.142,-4.1584,-4.1518,-4.1531,-4.1574,-4.1594,-4.161,-4.1605,-4.1349,0,0,0,0,0,-4.1213,-4.127,-4.1283,-4.1375,-4.139,-4.1387,-4.1417,-4.1402,-4.1429,-4.1441,-4.1451,-4.1479,-4.1528,-4.1561,-4.1608,-4.1718,-4.1722,-4.1769,-4.1785,-4.1798,-4.181,-4.1868,-4.1889,-4.1665,-4.1665,-4.1665,0,0,-4.1275,-4.1292,-4.1329,-4.1391,-4.1411,-4.1469,-4.1397,-4.1462,-4.1504,-4.145,-4.1533,-4.1542,-4.157,-4.167,-4.1714,-4.1681,-4.1873,-4.1811,-4.1821,-4.1826,-4.188,-4.1902,-4.1921,-4.1672,-4.1671,-4.167,0,0,-4.1418,-4.1437,-4.1516,-4.1537,-4.1568,-4.1565,-4.1584,-4.1607,-4.1611,-4.1694,-4.1654,-4.1703,-4.179,-4.1812,-4.1834,-4.1985,-4.1952,-4.2,-4.2084,-4.2141,-4.2159,-4.2174,-4.2227,-4.2247,-4.2012,-4.2012,-4.2012,0,-4.149,-4.1578,-4.1559,-4.1627,-4.1655,-4.1609,-4.1688,-4.1709,-4.1753,-4.1773,-4.1736,-4.1843,-4.1859,-4.1962,-4.1999,-4.2019,-4.2039,-4.1997,-4.2158,-4.2173,-4.2187,-4.2238,-4.2258,-4.2018,-4.2017,-4.2016,-4.2016,0,-4.1665,-4.1726,-4.1786,-4.1831,-4.1865,-4.1938,-4.1929,-4.1966,-4.1948,-4.1948,-4.2033,-4.205,-4.2099,-4.2122,-4.2105,-4.2223,-4.2201,-4.2162,-4.2095,-4.2215,-4.2262,-4.2281,-4.2026,-4.2024,-4.2022,-4.2021,0,0,-4.186,-4.1894,-4.1916,-4.1936,-4.1967,-4.2013,-4.2083,-4.2131,-4.2163,-4.2195,-4.2252,-4.2326,-4.2289,-4.2315,-4.2299,-4.2349,-4.2466,-4.2303,-4.2303,-4.2332,-4.2596,-4.2626,-4.2649,-4.2444,-4.2448,-4.2451,-4.2594,0,-4.2004,-4.2127,-4.2112,-4.2229,-4.2284,-4.2241,-4.2301,-4.2326,-4.2328,-4.2374,-4.2376,-4.2428,-4.2376,-4.2391,-4.2439,-4.2442,-4.2519,-4.2431,-4.2496,-4.2499,-4.2491,-4.2674,-4.2706,-4.284,-4.2612,-4.2615,-4.2617,0,-4.2188,-4.2227,-4.235,-4.2372,-4.2394,-4.245,-4.2492,-4.2537,-4.2564,-4.2562,-4.259,-4.2565,-4.2634,-4.2566,-4.2659,-4.26,-4.2626,-4.2631,-4.2636,-4.2641,-4.2566,-4.2684,-4.2883,-4.2903,-4.2646,-4.2644,-4.2642,0,-4.2318,-4.2401,-4.2485,-4.2503,-4.2531,-4.257,-4.2583,-4.2606,-4.2636,-4.2673,-4.2692,-4.2736,-4.276,-4.2794,-4.2781,-4.2732,-4.2877,-4.2808,-4.2876,-4.2876,-4.2909,-4.2907,-4.3114,-4.2925,-4.2925,-4.2924,-4.2924,0,-4.2479,-4.2556,-4.2544,-4.2596,-4.268,-4.2661,-4.2745,-4.2752,-4.2773,-4.2824,-4.2788,-4.2837,-4.2817,-4.2864,-4.2854,-4.2933,-4.2944,-4.2943,-4.294,-4.2947,-4.2947,-4.2963,-4.2954,-4.293,-4.2929,-4.2928,-4.2927,0,-4.2639,-4.2634,-4.2723,-4.2742,-4.2748,-4.2809,-4.2824,-4.2872,-4.2871,-4.2937,-4.2951,-4.2949,-4.3002,-4.2993,-4.3051,-4.3044,-4.3143,-4.3128,-4.3135,-4.3131,-4.32,-4.3194,-4.3425,-4.3454,-4.3246,-4.3248,-4.325,0,-4.2743,-4.2801,-4.2826,-4.2859,-4.2875,-4.2927,-4.2958,-4.294,-4.2973,-4.3007,-4.3051,-4.3101,-4.3141,-4.3228,-4.3231,-4.3275,-4.3261,-4.3339,-4.3268,-4.3272,-4.3262,-4.3259,-4.3264,-4.3353,-4.3356,-4.3358,-4.3359,0,-4.2928,-4.2922,-4.2968,-4.3013,-4.305,-4.3085,-4.3115,-4.3144,-4.3129,-4.3167,-4.3222,-4.3253,-4.3313,-4.3363,-4.3404,-4.3416,-4.3385,-4.3382,-4.34,-4.3408,-4.3409,-4.3409,-4.3173,-4.3377,-4.3375,-4.3374,-4.3373,-4.3372,-4.3062,-4.3112,-4.3137,-4.3189,-4.321,-4.324,-4.3286,-4.329,-4.3336,-4.3385,-4.3371,-4.3433,-4.3456,-4.3509,-4.3525,-4.3572,-4.3543,-4.3569,-4.3576,-4.3583,-4.3591,-4.3402,-4.358,-4.3579,-4.3579,-4.3578,-4.3578,0,-4.3245,-4.3259,-4.3307,-4.3351,-4.3392,-4.336,-4.3392,-4.3428,-4.3483,-4.3508,-4.3548,-4.361,-4.3658,-4.3665,-4.371,-4.3747,-4.3734,-4.3759,-4.3756,-4.3759,-4.3615,-4.3595,-4.3769,-4.3769,-4.3769,-4.3769,-4.3769,-4.3769,-4.3345,-4.3427,-4.3424,-4.3516,-4.3529,-4.359,-4.3611,-4.3637,-4.3657,-4.3729,-4.3769,-4.3773,-4.3791,-4.3837,-4.3879,-4.3879,-4.3898,-4.3929,-4.3924,-4.3789,-4.377,-4.3752,-4.3732,-4.3933,-4.3933,-4.4064,-4.4066,-4.4067]}]]